Wind_Speed
51 51 52 53 54 52 50 50 50 50 50 48 48 47 43 40 40 42 43 42 38 32 28 25 21 20 20 17 11 8 9 10 14 15 13 13 14 14 14 13 14 16 16 15 16 17 19 20 21 21 21 21 20 20 20 18 16 15 16 18 18 18 17
53 52 51 53 55 54 52 51 49 50 50 50 50 50 48 45 45 45 44 42 40 38 34 27 23 21 19 16 12 8 9 12 16 17 15 14 14 15 14 14 16 17 17 16 16 17 18 20 21 22 22 21 20 19 19 17 16 16 16 17 17 16 17
55 54 53 53 54 55 54 51 49 51 53 52 52 53 52 50 48 47 46 44 43 41 37 30 26 22 17 15 13 11 11 13 16 16 13 14 15 15 14 16 18 17 14 13 13 16 18 19 20 21 22 21 19 17 17 16 16 16 16 16 16 16 17
56 56 58 57 55 55 55 53 53 55 54 53 53 53 52 51 50 49 47 48 47 43 37 32 28 24 18 15 15 15 14 15 16 13 13 15 16 15 15 17 18 16 13 11 8 10 13 16 17 18 17 16 15 15 15 16 16 16 16 16 16 18 19
55 58 59 56 53 55 57 55 56 56 55 55 54 53 52 51 51 50 49 50 48 42 37 32 28 25 22 19 18 18 19 19 17 15 15 17 17 16 16 17 17 15 13 10 7 5 6 9 12 13 13 13 14 15 15 15 15 15 15 16 18 19 20
54 56 55 52 51 54 55 54 55 55 54 54 55 55 55 53 52 52 51 51 49 43 39 34 29 26 24 23 22 22 23 23 20 18 20 20 19 19 18 17 16 15 13 10 7 5 3 4 6 9 10 12 13 13 14 14 15 16 16 18 19 21 22
53 52 50 51 51 52 54 54 53 53 54 54 55 56 54 53 54 53 52 53 50 45 41 37 31 27 25 23 23 25 27 27 21 19 22 22 20 20 19 17 15 13 13 11 7 4 3 2 2 5 7 9 11 12 14 15 16 17 18 20 22 23 25
52 50 48 50 52 53 55 57 55 55 56 55 54 54 53 52 54 53 53 54 51 46 43 39 34 31 28 25 24 25 28 29 24 21 22 22 20 21 20 18 15 12 10 9 7 4 4 3 3 4 5 7 10 12 13 15 16 18 20 21 23 25 27
50 50 49 51 53 55 56 58 58 57 55 54 54 53 52 52 54 54 54 55 50 46 44 40 34 30 28 28 27 26 27 28 26 24 23 23 23 23 21 18 15 12 8 6 5 3 4 6 6 7 7 7 8 9 11 13 15 17 19 21 23 26 28
51 53 53 52 53 54 56 57 58 57 55 55 55 53 52 53 55 55 56 55 50 46 44 39 34 30 28 27 26 26 27 26 25 25 25 25 25 25 22 19 15 12 9 7 6 5 6 8 9 8 6 6 7 8 11 14 16 18 20 23 26 28 30
45 50 51 49 48 51 53 55 56 55 53 54 55 55 55 54 55 56 53 50 49 48 43 38 34 31 28 23 21 21 23 24 24 25 26 26 25 24 22 19 15 12 10 9 8 7 8 9 9 9 8 8 9 12 15 18 20 21 24 28 30 31 33
35 41 44 44 45 47 49 51 53 53 51 52 56 58 56 54 56 54 47 44 46 46 41 35 31 28 24 21 19 17 16 19 22 22 22 22 22 23 21 17 13 12 11 10 10 9 9 9 9 9 9 11 13 16 19 21 23 25 27 29 31 32 35
26 33 40 43 44 47 49 50 52 52 51 53 54 54 52 53 55 50 41 41 43 39 33 27 24 22 22 21 19 15 13 16 19 20 19 19 20 20 19 14 12 13 13 13 13 13 13 11 11 11 12 14 16 18 20 23 25 27 29 29 30 31 33
22 26 34 41 45 47 50 52 51 51 52 52 51 50 49 50 51 46 40 40 39 32 26 23 21 20 20 21 20 17 16 18 19 20 20 19 19 18 16 13 13 15 16 16 17 18 19 18 17 17 17 19 20 21 23 24 26 27 28 29 29 30 31
27 25 28 37 45 48 51 52 51 51 51 50 48 48 47 46 46 43 40 41 38 29 24 24 24 22 22 23 22 19 19 20 21 21 22 21 18 15 15 16 17 19 20 20 20 21 23 24 24 23 24 25 26 26 27 28 29 30 30 31 31 31 31
32 28 27 33 41 47 53 54 53 51 51 49 46 45 46 46 44 42 41 41 36 28 25 26 26 25 25 26 25 22 21 23 24 23 22 20 17 15 16 19 20 22 23 23 23 24 25 26 27 27 29 30 30 30 31 32 32 32 33 33 34 34 34
34 32 29 30 35 45 54 57 53 51 51 49 45 43 44 44 44 42 40 37 31 27 26 28 27 26 26 26 26 24 25 26 25 23 22 19 18 18 19 21 22 24 26 26 26 26 27 28 29 31 32 32 32 33 34 34 34 35 35 35 36 37 38
36 34 31 31 35 45 53 54 52 51 51 49 47 45 44 44 43 41 37 33 31 31 31 30 29 29 27 25 24 25 26 27 27 26 24 22 21 22 22 23 24 26 28 29 29 29 29 30 31 32 33 34 34 35 36 36 36 37 37 37 37 39 41
37 35 35 36 39 43 48 52 52 51 49 48 46 46 46 44 42 39 35 32 33 35 34 33 34 34 30 26 26 27 29 29 30 29 28 26 26 25 24 25 27 29 31 33 32 31 31 31 32 34 35 36 37 37 38 38 38 39 39 39 40 41 43
39 38 37 38 38 39 45 52 54 52 50 47 45 45 46 44 41 38 35 33 33 35 35 34 34 34 32 29 29 30 31 32 32 31 29 28 28 27 26 28 31 33 34 35 34 33 33 33 35 36 38 39 40 40 41 41 40 40 41 41 43 44 45
40 39 37 36 34 34 43 52 54 53 51 48 45 43 43 42 40 38 36 35 35 36 37 35 34 34 35 34 33 34 34 34 33 32 31 31 31 31 32 33 35 36 36 36 35 34 35 36 38 40 41 42 43 44 44 43 42 43 43 43 45 48 50
39 39 38 36 34 33 39 47 53 53 50 47 44 42 41 40 39 38 37 36 36 36 38 37 36 37 38 39 38 38 37 35 34 34 35 36 37 37 36 36 37 38 38 38 37 37 38 40 41 42 43 43 44 46 46 45 44 45 45 46 49 52 52
41 40 39 37 34 33 34 39 48 50 48 46 44 41 39 39 41 41 39 38 38 37 37 38 39 40 41 42 41 39 37 36 34 35 37 39 39 38 38 39 40 40 41 41 41 41 42 43 44 44 44 44 44 46 46 46 47 47 47 50 54 54 52
44 42 40 38 34 32 31 34 40 45 46 46 46 43 41 39 41 43 43 42 42 42 40 40 42 42 43 43 43 40 38 38 37 37 38 39 38 39 40 41 42 42 43 43 43 42 43 44 46 46 46 44 44 44 46 47 49 49 50 53 54 51 50
46 44 40 38 34 31 31 33 36 41 44 44 43 42 42 41 41 43 44 44 45 45 44 43 43 42 42 43 43 41 40 41 42 41 38 36 37 39 40 41 42 43 43 43 43 43 44 45 46 47 47 47 46 46 46 48 50 51 53 54 52 50 49
44 43 42 39 36 32 31 32 35 39 42 42 42 43 44 44 44 45 47 48 49 48 47 45 44 43 43 44 44 43 43 46 47 45 41 40 40 40 40 41 42 43 44 45 45 45 46 46 46 47 49 50 49 48 48 51 54 54 54 54 52 51 50
36 36 38 40 39 35 33 33 35 38 40 40 42 45 46 45 45 45 47 47 47 47 45 44 44 45 44 42 41 41 42 46 49 48 44 44 44 42 42 43 45 45 45 45 45 45 47 49 49 50 50 51 51 51 52 55 57 56 55 55 53 51 49
32 32 36 40 41 38 36 36 38 40 40 40 40 41 42 43 43 43 42 40 39 40 41 41 41 41 39 37 36 35 35 38 42 44 43 43 43 42 42 44 45 46 45 44 44 46 49 51 52 53 53 54 54 54 55 57 58 57 56 52 49 47 46
32 34 35 39 42 40 39 40 41 41 41 41 39 38 36 36 37 38 38 38 38 39 40 40 39 37 36 33 32 32 33 33 36 38 39 40 40 40 41 44 45 44 43 43 45 48 51 53 55 57 58 58 57 57 58 58 57 54 50 45 43 43 44
31 34 35 37 41 42 43 44 44 43 42 40 39 38 35 34 35 37 38 40 40 40 39 39 38 37 36 35 33 33 34 35 36 37 38 39 38 38 40 42 42 42 42 43 46 49 52 55 57 59 60 59 59 59 58 55 52 49 45 43 43 43 43
32 33 36 38 41 43 45 45 44 43 41 38 37 37 36 35 35 36 37 38 38 37 37 36 36 36 36 36 37 38 39 40 40 39 39 38 38 38 39 41 42 43 43 44 46 49 52 55 57 58 58 59 58 56 52 50 49 47 45 44 43 42 41
37 33 34 38 41 44 45 43 41 40 39 38 38 38 38 38 39 38 38 38 36 36 37 37 37 38 38 38 39 40 42 43 45 45 45 45 44 42 42 43 45 46 46 48 50 52 54 56 58 58 60 59 55 50 46 45 44 43 42 41 39 38 38
42 38 35 34 37 43 47 47 45 43 40 39 39 39 40 42 43 41 41 41 40 39 39 40 40 41 41 42 42 43 44 45 45 47 48 49 48 45 43 45 46 47 47 48 50 52 55 58 60 60 58 53 47 41 39 38 37 37 38 38 37 37 37
40 40 39 36 35 37 41 44 48 49 47 45 44 43 42 43 42 40 38 39 39 39 40 42 42 41 43 44 44 44 45 44 44 44 45 46 47 46 45 45 45 45 45 45 46 48 50 51 51 48 43 37 34 33 34 35 36 38 39 38 38 38 37
34 36 40 42 41 37 34 35 39 43 48 51 51 49 49 48 46 42 40 40 39 39 40 42 42 42 43 43 43 43 45 44 44 45 45 45 45 45 44 42 41 41 41 41 42 43 41 38 34 32 30 30 31 33 35 37 38 39 39 40 40 39 38
33 34 36 40 41 40 37 35 35 35 38 42 43 41 41 42 40 37 36 37 37 37 38 40 42 43 43 44 46 48 50 50 50 48 45 42 40 39 39 39 39 39 38 38 38 38 37 33 31 31 31 32 33 35 37 38 38 38 40 41 42 41 40
34 34 34 35 37 39 39 40 39 37 37 38 37 34 33 34 34 32 32 33 35 36 37 39 41 42 43 45 48 50 50 51 51 49 43 39 37 36 36 36 36 35 35 36 36 36 35 34 33 33 34 35 36 37 38 39 39 39 40 41 43 43 41
Wind_Direction
220 218 216 218 217 215 216 217 217 220 220 222 227 232 236 237 239 240 241 244 249 252 251 246 245 242 241 247 248 233 236 241 248 262 267 262 266 278 286 290 292 291 288 279 264 254 249 248 252 256 261 265 268 269 271 275 278 278 277 280 285 287 289
223 221 218 217 219 218 218 217 218 219 220 221 225 230 234 236 239 242 243 246 249 253 254 253 251 249 248 255 261 259 250 243 251 262 263 258 265 276 282 291 294 292 291 284 269 259 256 255 256 257 259 263 264 266 271 275 276 274 275 279 284 289 292
224 223 221 218 217 219 219 218 219 219 220 221 222 226 231 234 237 242 245 247 249 251 255 257 256 256 255 255 258 261 255 246 249 254 251 252 262 271 279 289 292 291 294 288 267 255 256 257 259 260 260 262 264 266 269 271 270 271 276 283 290 294 295
223 223 223 219 215 217 218 217 218 219 219 221 223 226 230 234 237 241 245 248 250 252 256 259 260 263 260 251 251 259 259 252 250 250 247 251 262 268 274 286 289 287 290 292 274 256 254 253 255 257 257 257 258 259 261 265 269 273 281 287 291 293 293
224 222 222 219 215 216 218 217 218 218 217 219 223 226 230 234 238 241 244 247 251 253 257 261 262 266 266 261 259 262 260 256 252 245 241 249 259 263 271 284 286 280 281 288 289 276 262 255 254 254 252 249 249 254 261 267 272 278 283 285 286 289 292
224 223 223 221 218 218 220 220 220 220 218 219 222 225 229 232 237 241 244 248 252 254 258 262 264 265 266 267 268 266 265 265 256 238 236 245 253 259 270 282 279 273 274 280 287 275 246 248 256 254 253 252 254 259 263 267 274 279 283 286 290 293 296
223 223 223 222 220 219 221 222 223 223 221 220 222 225 229 231 234 237 241 246 250 253 256 259 260 263 265 265 266 262 263 267 256 233 234 243 251 260 272 278 273 270 272 275 282 265 212 198 230 244 249 251 253 257 261 268 276 283 289 294 298 301 302
222 223 222 221 220 218 218 220 221 222 222 222 223 227 230 233 234 236 240 244 247 252 256 256 255 259 261 260 260 257 259 263 256 238 237 245 254 264 273 274 266 267 277 282 283 254 216 220 259 284 283 266 261 265 270 279 285 291 298 302 304 305 305
220 220 220 219 218 216 215 218 220 221 221 221 223 226 230 233 234 235 239 243 246 251 255 256 255 257 260 258 257 258 258 260 258 250 247 253 260 266 271 268 260 260 272 287 288 258 245 267 293 309 304 282 274 279 284 292 297 300 304 308 309 309 308
219 218 218 218 218 218 215 216 220 221 220 220 221 223 226 231 233 235 238 241 243 246 250 253 253 252 255 257 256 256 255 253 252 251 253 257 261 265 267 263 258 256 256 265 279 285 285 286 292 296 288 273 278 288 295 301 302 304 308 310 311 312 312
225 222 222 221 221 221 218 217 220 221 219 219 220 221 224 229 233 235 238 240 242 244 247 251 251 248 250 255 257 256 251 245 245 249 255 257 257 260 261 259 260 262 258 257 263 277 291 289 285 278 268 271 281 288 296 301 302 306 309 309 309 312 314
227 223 223 222 221 221 220 219 221 221 221 221 221 223 226 230 233 236 239 241 241 244 246 249 249 246 246 252 261 266 256 245 246 248 250 250 250 251 254 257 268 277 277 274 268 271 279 276 273 273 275 282 286 290 297 301 304 307 307 308 310 312 313
225 219 219 219 218 218 217 217 218 218 219 222 224 227 230 232 234 236 239 241 241 242 243 245 246 244 245 252 263 275 265 247 243 241 239 240 243 248 254 263 279 285 288 290 287 287 287 276 266 269 280 287 289 292 298 300 302 303 304 308 311 310 309
219 217 216 215 216 217 216 215 215 215 217 221 224 229 231 233 235 236 239 241 240 236 237 243 244 242 244 249 257 265 257 242 237 236 236 239 242 251 266 279 286 285 288 292 293 296 298 294 287 285 290 295 297 300 303 304 305 306 308 311 313 311 308
214 214 216 214 214 216 217 216 215 214 216 219 221 224 226 228 231 233 236 239 235 227 232 243 244 244 245 245 248 253 246 236 233 235 239 246 251 262 277 284 283 283 285 288 292 296 299 299 300 302 303 305 306 307 308 309 310 312 313 314 316 316 313
212 208 215 215 213 215 217 216 215 214 216 218 219 221 222 225 228 231 236 237 231 224 231 244 249 250 249 246 246 247 238 233 236 242 250 257 261 268 275 276 276 279 281 284 288 292 295 297 300 302 304 305 306 307 309 309 310 313 315 315 316 317 316
212 204 212 217 215 217 217 214 213 214 216 219 221 221 223 225 227 231 235 236 231 228 235 246 254 257 254 250 248 243 234 232 240 251 261 267 266 266 268 268 269 273 276 279 283 286 290 293 296 298 300 302 303 305 307 307 307 311 314 315 314 316 317
213 204 211 220 223 223 217 211 212 215 217 220 223 224 225 225 227 229 230 230 230 232 239 247 254 258 256 250 246 242 234 233 241 251 260 265 263 262 262 263 266 269 271 275 279 283 288 292 293 294 296 298 298 301 304 304 304 308 312 314 313 314 316
214 206 211 223 228 223 213 208 210 213 216 220 223 226 227 226 226 227 225 224 226 232 238 242 247 250 247 238 235 233 229 230 237 246 253 258 257 258 260 260 262 264 268 272 277 284 289 290 290 290 291 292 293 296 300 301 302 306 310 311 312 311 312
217 209 212 222 226 220 212 209 209 210 214 217 221 226 228 226 225 224 223 223 227 232 235 237 240 243 239 234 231 227 226 232 238 245 250 252 252 254 254 254 257 262 267 271 277 283 286 286 285 286 287 289 292 296 299 299 300 304 308 309 309 308 307
221 214 216 224 226 221 214 210 208 209 213 216 220 225 228 226 223 222 222 224 228 231 233 234 237 238 236 234 232 228 229 234 240 245 247 243 244 247 249 253 259 262 264 268 273 278 280 280 281 283 287 292 295 297 298 297 299 304 306 306 307 306 305
221 217 221 226 227 226 219 213 210 210 212 216 221 224 225 223 221 221 224 227 230 232 234 234 235 236 236 235 233 233 235 238 242 245 243 240 243 248 252 257 260 260 262 266 269 273 275 276 277 281 287 292 295 297 297 296 298 302 304 304 305 304 303
218 217 221 225 227 229 225 218 214 212 213 217 220 221 225 226 223 225 228 231 234 236 237 237 237 238 238 237 235 236 240 243 244 243 242 243 247 251 255 258 260 260 262 265 268 271 274 275 275 279 284 288 292 296 296 296 297 300 302 304 305 304 302
216 217 221 225 228 231 229 223 217 214 215 217 216 219 227 230 228 229 231 233 236 237 236 236 238 241 242 240 239 241 243 244 245 245 247 248 249 252 255 257 259 260 263 267 269 272 276 276 275 277 280 285 290 292 293 294 295 296 300 303 304 303 301
214 217 222 226 229 231 230 228 224 219 217 217 216 220 228 231 230 231 232 234 237 238 236 234 235 239 242 242 242 244 245 245 245 245 246 247 249 252 256 258 260 262 267 272 274 274 276 277 275 277 281 286 290 289 287 291 294 296 298 301 300 298 298
212 216 222 226 229 230 229 229 229 226 225 224 222 223 227 231 231 231 232 234 238 240 239 237 236 238 241 242 244 245 246 246 247 245 246 249 251 254 256 259 261 263 266 270 271 272 276 279 279 283 286 289 290 287 284 288 293 295 297 297 295 294 295
207 214 220 223 225 225 225 226 229 230 232 233 229 227 230 235 237 236 236 237 240 242 243 243 242 243 246 247 248 250 250 250 248 246 248 252 253 254 257 260 261 260 263 268 272 275 280 284 284 286 287 288 288 286 285 288 291 293 295 294 292 291 293
200 209 216 221 222 220 218 220 225 228 231 234 235 235 237 239 242 245 246 244 243 246 247 247 246 247 249 250 250 252 254 254 250 248 251 255 257 258 261 261 261 261 266 274 279 282 285 287 287 286 286 286 286 285 286 287 289 291 292 290 287 288 290
199 205 212 218 220 217 212 213 219 224 223 222 226 231 233 234 236 241 245 246 245 246 247 249 249 249 250 249 247 246 247 248 249 249 250 252 255 259 263 263 264 268 273 280 284 286 287 288 288 287 286 285 284 284 285 286 288 290 289 286 285 287 288
198 201 207 213 216 216 214 211 212 217 218 215 217 222 226 229 233 236 240 244 245 246 247 249 251 252 252 252 250 248 246 245 246 249 252 254 257 261 265 268 271 275 279 282 284 285 286 286 286 285 284 283 282 282 282 283 286 287 285 284 285 286 285
202 200 205 210 211 213 214 210 206 209 213 214 216 219 221 225 229 232 235 238 240 242 244 245 246 248 250 252 253 254 254 256 258 259 261 263 265 266 267 268 270 274 278 282 284 285 284 284 284 284 284 283 281 280 279 282 285 284 282 283 284 283 281
214 210 209 209 211 212 213 210 205 204 207 211 214 217 220 224 226 227 230 233 235 237 239 241 242 243 245 246 249 253 256 259 261 261 261 261 261 262 264 266 269 272 276 280 284 285 285 284 284 284 284 282 280 278 280 284 284 282 280 281 281 280 280
229 226 219 213 213 215 217 218 216 212 210 212 215 217 220 225 227 226 227 230 233 236 240 243 245 247 248 249 251 254 255 255 255 256 258 259 259 261 263 266 270 273 276 279 283 285 286 286 285 284 283 281 279 278 282 285 283 280 280 281 281 282 284
245 242 238 233 226 221 220 222 224 224 224 224 226 226 227 228 230 230 231 233 237 240 244 246 248 250 252 254 255 256 255 254 254 257 260 262 263 264 264 265 269 272 276 279 284 287 289 288 285 284 283 281 280 282 283 283 282 282 284 285 286 287 289
251 248 247 245 241 238 237 234 230 230 231 231 231 232 234 234 235 238 241 244 245 247 249 251 252 254 256 260 261 260 259 259 260 261 264 265 266 266 266 267 270 273 276 280 284 287 288 286 282 280 280 280 280 281 281 281 282 284 287 288 288 288 288
246 247 249 250 249 250 252 250 244 242 240 235 233 234 236 236 235 238 243 248 253 257 259 259 260 261 263 265 265 263 263 263 263 263 264 265 266 266 267 269 271 273 276 279 281 282 282 280 278 277 278 278 278 278 279 280 283 285 287 286 283 282 282
241 245 249 251 251 252 255 255 254 254 253 250 248 249 249 246 244 245 248 252 258 263 265 265 265 264 264 264 264 263 263 262 261 261 262 263 264 266 268 269 270 271 273 275 276 277 277 276 275 275 276 277 277 278 279 281 284 286 289 289 285 279 276
Height
5836 5840 5844 5847 5849 5852 5854 5855 5856 5857 5861 5866 5868 5867 5869 5870 5870 5869 5870 5871 5873 5876 5879 5882 5885 5887 5888 5890 5890 5890 5890 5891 5892 5893 5895 5895 5895 5895 5895 5894 5893 5892 5891 5891 5891 5891 5891 5891 5891 5892 5892 5892 5893 5894 5894 5895 5896 5896 5896 5896 5895 5895 5895
5832 5836 5841 5844 5846 5848 5849 5851 5853 5856 5860 5863 5864 5864 5865 5866 5865 5864 5866 5869 5871 5873 5875 5879 5883 5884 5886 5887 5888 5888 5888 5889 5890 5891 5893 5893 5893 5893 5893 5892 5891 5890 5890 5889 5889 5889 5889 5889 5889 5889 5890 5890 5891 5892 5892 5893 5893 5893 5893 5893 5893 5893 5892
5827 5832 5836 5837 5840 5843 5845 5848 5851 5853 5855 5857 5858 5859 5858 5860 5861 5861 5863 5866 5868 5869 5872 5877 5880 5882 5884 5885 5886 5886 5886 5888 5889 5890 5891 5891 5891 5891 5891 5890 5889 5888 5888 5887 5886 5886 5886 5886 5887 5887 5887 5888 5889 5890 5890 5890 5891 5891 5891 5891 5891 5890 5889
5821 5825 5826 5828 5834 5837 5840 5843 5845 5847 5850 5853 5854 5856 5856 5857 5858 5858 5860 5861 5862 5866 5870 5874 5877 5879 5881 5882 5883 5884 5885 5886 5887 5889 5890 5890 5890 5890 5889 5888 5887 5887 5886 5885 5884 5883 5883 5884 5884 5884 5885 5886 5887 5887 5888 5888 5888 5889 5889 5889 5888 5887 5886
5813 5815 5817 5823 5831 5833 5834 5837 5838 5841 5845 5848 5850 5852 5853 5855 5855 5856 5858 5857 5858 5864 5869 5871 5874 5876 5878 5879 5881 5882 5883 5885 5886 5887 5888 5888 5888 5888 5887 5887 5886 5885 5885 5884 5883 5882 5881 5882 5882 5883 5884 5884 5885 5885 5886 5886 5886 5887 5887 5886 5886 5885 5884
5806 5812 5817 5823 5829 5830 5832 5834 5835 5838 5842 5844 5846 5847 5848 5851 5852 5853 5854 5854 5856 5862 5866 5869 5872 5874 5875 5877 5878 5880 5881 5883 5884 5885 5885 5886 5886 5886 5885 5886 5885 5884 5883 5883 5882 5881 5880 5880 5881 5882 5882 5883 5883 5884 5884 5885 5885 5885 5885 5884 5884 5883 5882
5804 5810 5815 5818 5822 5826 5830 5831 5834 5837 5839 5841 5842 5841 5844 5848 5849 5850 5852 5852 5854 5858 5863 5867 5870 5871 5873 5875 5876 5878 5879 5880 5882 5883 5883 5883 5883 5883 5883 5884 5883 5882 5882 5881 5881 5880 5880 5880 5880 5881 5881 5882 5882 5882 5883 5883 5883 5883 5883 5882 5882 5881 5879
5800 5805 5808 5811 5814 5818 5821 5824 5828 5831 5833 5836 5839 5840 5844 5846 5846 5848 5850 5849 5852 5857 5860 5864 5867 5869 5871 5872 5874 5875 5876 5877 5879 5880 5880 5881 5881 5881 5881 5882 5881 5881 5880 5879 5879 5879 5879 5879 5879 5879 5880 5880 5880 5881 5881 5882 5882 5881 5880 5880 5879 5878 5876
5792 5795 5798 5801 5805 5809 5813 5818 5822 5825 5829 5834 5837 5839 5842 5841 5841 5845 5846 5845 5850 5856 5858 5861 5864 5867 5869 5870 5871 5872 5873 5875 5876 5876 5877 5878 5879 5879 5879 5880 5879 5879 5879 5878 5877 5877 5877 5878 5878 5878 5878 5879 5879 5880 5880 5880 5879 5878 5878 5877 5876 5875 5873
5784 5787 5791 5796 5802 5805 5809 5813 5817 5820 5824 5828 5832 5834 5836 5835 5837 5841 5842 5843 5849 5854 5855 5858 5862 5864 5866 5867 5868 5869 5870 5871 5872 5873 5874 5875 5876 5876 5877 5877 5877 5877 5877 5876 5876 5876 5876 5876 5876 5876 5877 5877 5878 5878 5878 5877 5877 5876 5875 5874 5872 5871 5870
5782 5788 5793 5799 5803 5804 5807 5811 5814 5817 5821 5824 5828 5829 5829 5831 5835 5836 5838 5842 5847 5850 5853 5856 5859 5861 5863 5864 5865 5866 5866 5868 5869 5870 5871 5872 5873 5874 5874 5874 5875 5875 5875 5875 5874 5874 5874 5875 5875 5875 5875 5875 5875 5876 5875 5875 5874 5873 5871 5870 5869 5868 5866
5781 5787 5794 5797 5799 5801 5805 5810 5813 5815 5818 5821 5823 5823 5825 5829 5832 5832 5836 5842 5844 5846 5851 5854 5856 5858 5860 5861 5862 5862 5864 5865 5866 5867 5868 5869 5870 5870 5871 5872 5872 5872 5872 5872 5872 5873 5873 5873 5873 5873 5873 5873 5873 5873 5872 5871 5870 5869 5868 5867 5866 5864 5862
5778 5783 5788 5791 5794 5796 5800 5805 5809 5812 5815 5817 5819 5821 5824 5827 5827 5830 5836 5840 5841 5844 5849 5851 5854 5856 5857 5858 5859 5860 5861 5862 5863 5864 5865 5866 5867 5867 5868 5869 5869 5869 5869 5869 5870 5870 5870 5871 5871 5870 5870 5870 5870 5870 5869 5868 5867 5866 5864 5864 5863 5861 5859
5774 5779 5782 5786 5790 5792 5795 5799 5803 5807 5811 5813 5816 5819 5822 5824 5825 5830 5835 5836 5837 5842 5846 5848 5850 5852 5853 5855 5856 5857 5858 5859 5860 5861 5862 5863 5864 5864 5865 5865 5866 5866 5866 5866 5866 5866 5866 5867 5867 5867 5867 5867 5866 5866 5865 5864 5863 5862 5861 5860 5859 5857 5855
5769 5774 5778 5782 5785 5788 5791 5794 5799 5803 5806 5809 5812 5815 5818 5820 5823 5827 5830 5830 5833 5838 5842 5844 5846 5848 5849 5851 5852 5854 5855 5857 5857 5858 5859 5860 5861 5861 5862 5862 5862 5862 5862 5862 5862 5862 5862 5861 5861 5862 5862 5862 5861 5861 5860 5859 5858 5858 5857 5856 5854 5853 5851
5764 5769 5774 5777 5781 5784 5786 5788 5793 5798 5801 5804 5808 5811 5814 5816 5819 5822 5824 5825 5829 5835 5838 5840 5842 5843 5845 5847 5849 5850 5852 5853 5854 5855 5856 5857 5858 5859 5859 5858 5858 5858 5858 5858 5858 5858 5857 5857 5857 5857 5857 5857 5857 5856 5856 5855 5854 5853 5852 5851 5849 5848 5847
5760 5765 5770 5774 5777 5776 5776 5781 5789 5794 5797 5801 5804 5807 5810 5812 5815 5817 5818 5822 5828 5833 5835 5836 5838 5840 5841 5843 5845 5847 5848 5849 5850 5851 5852 5854 5855 5855 5855 5855 5855 5854 5854 5854 5854 5854 5853 5853 5853 5853 5853 5853 5852 5852 5851 5851 5850 5849 5848 5847 5845 5843 5842
5757 5762 5766 5769 5769 5766 5769 5779 5787 5790 5793 5797 5801 5803 5805 5808 5810 5812 5815 5819 5824 5828 5830 5832 5834 5836 5838 5840 5842 5843 5844 5846 5847 5848 5849 5850 5851 5851 5851 5851 5851 5851 5850 5850 5849 5850 5850 5850 5849 5849 5849 5848 5848 5848 5847 5847 5846 5845 5843 5842 5841 5839 5837
5755 5758 5761 5761 5760 5762 5770 5777 5781 5785 5790 5794 5797 5799 5801 5803 5806 5809 5812 5816 5819 5822 5826 5828 5830 5831 5833 5835 5836 5838 5839 5841 5842 5843 5845 5846 5846 5846 5847 5847 5846 5846 5846 5845 5845 5846 5846 5846 5845 5845 5845 5844 5844 5844 5843 5842 5842 5840 5839 5838 5836 5835 5833
5751 5754 5755 5755 5756 5762 5768 5772 5775 5781 5785 5788 5792 5794 5796 5800 5803 5806 5809 5812 5814 5818 5821 5823 5825 5826 5828 5830 5832 5833 5834 5836 5837 5839 5841 5842 5842 5842 5842 5842 5841 5841 5841 5841 5841 5842 5842 5841 5841 5841 5840 5840 5839 5839 5839 5838 5837 5836 5835 5834 5832 5830 5828
5748 5751 5753 5754 5757 5761 5763 5767 5772 5777 5780 5784 5788 5791 5793 5797 5800 5803 5805 5808 5810 5813 5816 5819 5820 5822 5823 5825 5827 5829 5830 5831 5833 5835 5836 5836 5836 5836 5836 5836 5836 5837 5837 5837 5837 5837 5837 5837 5836 5836 5836 5835 5835 5835 5834 5833 5833 5832 5831 5829 5827 5825 5823
5746 5749 5750 5752 5755 5757 5760 5765 5769 5773 5777 5781 5784 5787 5790 5793 5796 5799 5801 5804 5807 5809 5812 5814 5816 5818 5819 5821 5823 5824 5826 5828 5829 5830 5830 5830 5830 5831 5831 5832 5832 5832 5832 5833 5833 5833 5833 5832 5832 5832 5832 5832 5831 5830 5830 5829 5829 5828 5827 5825 5823 5821 5819
5743 5746 5747 5750 5753 5755 5759 5763 5766 5770 5774 5777 5781 5785 5786 5788 5792 5795 5797 5800 5803 5805 5808 5810 5812 5814 5815 5817 5818 5820 5822 5824 5825 5825 5824 5824 5825 5827 5827 5827 5827 5827 5828 5828 5828 5829 5829 5829 5828 5828 5828 5828 5827 5826 5825 5825 5824 5823 5822 5820 5818 5815 5813
5739 5742 5744 5747 5750 5753 5757 5760 5763 5768 5771 5773 5777 5781 5782 5784 5788 5791 5793 5796 5798 5801 5803 5805 5807 5809 5811 5813 5814 5816 5818 5819 5820 5820 5820 5820 5821 5822 5822 5822 5822 5822 5822 5823 5824 5824 5825 5824 5824 5823 5823 5823 5823 5822 5821 5820 5819 5818 5817 5816 5813 5810 5807
5735 5739 5741 5744 5747 5750 5754 5757 5760 5763 5766 5769 5773 5777 5779 5781 5784 5787 5790 5793 5794 5796 5798 5800 5802 5804 5806 5808 5809 5811 5813 5814 5815 5816 5816 5816 5816 5816 5817 5817 5818 5818 5818 5819 5819 5820 5820 5819 5819 5818 5818 5819 5818 5817 5816 5815 5814 5813 5813 5811 5809 5806 5803
5732 5736 5738 5741 5744 5747 5751 5754 5756 5759 5762 5765 5770 5773 5775 5778 5780 5782 5785 5788 5790 5792 5794 5796 5797 5799 5800 5802 5804 5806 5807 5809 5809 5810 5810 5811 5811 5811 5812 5813 5813 5814 5814 5815 5815 5815 5814 5814 5813 5813 5813 5813 5813 5812 5811 5810 5808 5808 5807 5805 5803 5801 5798
5729 5733 5735 5738 5740 5743 5748 5751 5753 5756 5759 5762 5766 5769 5772 5775 5777 5778 5780 5783 5785 5787 5790 5792 5793 5794 5796 5798 5799 5801 5802 5802 5803 5804 5805 5806 5807 5807 5808 5808 5808 5809 5809 5809 5809 5809 5809 5808 5808 5807 5807 5807 5807 5806 5805 5803 5802 5801 5801 5799 5797 5795 5793
5725 5728 5731 5734 5736 5740 5744 5747 5749 5752 5755 5758 5762 5766 5768 5770 5772 5774 5776 5778 5781 5782 5784 5786 5787 5789 5790 5792 5793 5795 5795 5796 5797 5799 5800 5801 5802 5802 5803 5804 5804 5804 5805 5805 5805 5804 5803 5802 5801 5801 5801 5801 5800 5799 5798 5796 5796 5795 5794 5792 5791 5789 5787
5720 5723 5727 5730 5733 5737 5740 5742 5745 5747 5751 5755 5758 5761 5764 5766 5767 5769 5771 5773 5775 5777 5778 5779 5780 5782 5783 5785 5787 5788 5789 5790 5791 5793 5794 5794 5795 5797 5799 5799 5799 5800 5800 5800 5799 5798 5797 5796 5796 5795 5795 5795 5794 5793 5791 5790 5790 5789 5788 5786 5785 5784 5782
5716 5720 5723 5726 5730 5734 5736 5738 5741 5743 5747 5751 5753 5756 5759 5761 5763 5766 5767 5769 5770 5772 5773 5774 5775 5776 5777 5779 5781 5783 5784 5785 5786 5787 5787 5788 5789 5791 5793 5794 5793 5794 5794 5793 5793 5793 5792 5791 5790 5789 5789 5788 5788 5787 5785 5784 5783 5782 5781 5780 5779 5778 5776
5712 5716 5720 5723 5726 5729 5732 5735 5738 5739 5743 5747 5749 5752 5755 5757 5760 5762 5764 5765 5766 5768 5769 5770 5772 5773 5774 5776 5777 5778 5780 5780 5781 5783 5783 5783 5784 5786 5787 5787 5787 5787 5787 5787 5787 5787 5787 5785 5783 5783 5782 5782 5781 5780 5779 5778 5776 5775 5775 5774 5773 5772 5771
5708 5711 5715 5719 5723 5726 5729 5732 5734 5736 5739 5742 5745 5747 5750 5753 5755 5757 5759 5761 5763 5764 5765 5766 5767 5769 5771 5773 5774 5775 5776 5778 5778 5778 5779 5779 5780 5780 5780 5780 5780 5781 5782 5781 5781 5781 5779 5777 5776 5775 5775 5775 5775 5774 5772 5770 5769 5769 5769 5768 5768 5767 5766
5704 5707 5711 5716 5720 5723 5726 5728 5731 5733 5735 5738 5740 5743 5746 5749 5750 5752 5754 5757 5758 5759 5761 5762 5763 5765 5767 5768 5770 5770 5771 5772 5773 5774 5774 5775 5776 5776 5776 5775 5775 5776 5776 5776 5775 5774 5773 5771 5769 5769 5768 5768 5768 5768 5766 5765 5765 5765 5764 5763 5763 5762 5761
5700 5704 5708 5712 5716 5719 5721 5724 5727 5730 5732 5734 5737 5739 5742 5745 5747 5748 5750 5752 5753 5755 5757 5758 5759 5761 5762 5763 5765 5765 5766 5767 5768 5769 5770 5771 5771 5771 5771 5770 5770 5771 5771 5770 5769 5768 5767 5765 5764 5764 5763 5762 5762 5762 5762 5762 5762 5760 5759 5759 5758 5758 5757
5697 5700 5704 5707 5711 5714 5717 5720 5723 5726 5729 5731 5733 5735 5738 5740 5742 5744 5746 5747 5749 5752 5753 5754 5755 5757 5758 5759 5760 5761 5761 5761 5762 5763 5764 5765 5765 5765 5765 5765 5765 5764 5764 5764 5763 5763 5762 5761 5759 5759 5758 5757 5757 5758 5757 5757 5756 5756 5755 5754 5754 5753 5753
5693 5696 5700 5703 5706 5709 5712 5715 5718 5722 5725 5727 5728 5731 5733 5735 5737 5740 5742 5744 5746 5748 5749 5750 5751 5752 5753 5754 5754 5755 5755 5756 5756 5757 5758 5758 5759 5759 5759 5759 5758 5758 5758 5758 5758 5757 5757 5755 5754 5754 5753 5752 5752 5752 5751 5751 5751 5750 5750 5749 5748 5747 5747
5691 5694 5697 5699 5702 5705 5708 5711 5714 5717 5720 5722 5724 5726 5729 5731 5733 5736 5738 5740 5742 5743 5744 5745 5746 5747 5747 5747 5747 5748 5748 5748 5749 5750 5751 5751 5752 5753 5753 5753 5753 5753 5752 5752 5752 5752 5751 5750 5749 5748 5748 5747 5747 5746 5746 5746 5745 5745 5744 5743 5741 5741 5741